Погода в Песках

Украина / Полтавская область     50°22′31″N   33°26′53″E
темп.,
°C
ветер,
м/с
пор.,
м/с
влажн.,
%
обл.,
%
осадки,
мм/ч
давл.,
гПа
погр.,
м
19 апреля, пн
пн1900:00+5ссв479198 0.0 1018277
03:00+4ссв249359 0.0 101773
06:00+4с259298 0.0 1017153
09:00+6с3486100 0.0 1017285
12:00+10ссв346289 0.1 10161087
15:00+12с345399 0.1 10151676
18:00+10ссв3573100 0.0 1015205
21:00+7ссв228019 0.1 101518
20 апреля, вт
вт2000:00+5ссв238675 0.0 101431
03:00+4св339262 0.0 101349
06:00+3ссв3595100 0.0 101284
09:00+8св3575100 0.0 1010359
12:00+10св4773100 0.0 1008573
15:00+12с5765100 0.1 10051071
18:00+10ссв5978100 0.6 1003630
21:00+8с51089100 1.0 1004447
21 апреля, ср
ср2100:00+7сз5991100 0.0 1004431
03:00+6зсз51093100 0.1 1006414
06:00+7зсз3792100 0.0 1008482
09:00+7з5684100 0.3 1010644
12:00+9з6767100 0.2 10111276
15:00+10з575699 0.3 10131663
18:00+10зюз4760100 0.0 10141194
21:00+7ююз368096 0.0 1015112
22 апреля, чт
чт2200:00+6ю41084100 0.0 1015193
03:00+6ююз4985100 0.0 1015186
06:00+5ююз389183 0.0 1016159
09:00+10ююз577435 0.1 1017386
12:00+15юз685780 0.1 10171426
15:00+16юз795573 1.9 10171545
18:00+15юз37616 1.2 1017726
21:00+10ю512818 2.0 1018257
23 апреля, пт
пт2300:00+8ю410885 0.1 1018181
03:00+8ю511905 0.1 1017221
06:00+7ю410935 0.0 1017210
09:00+11ю6107774 0.0 1017413
12:00+16ю811586 0.0 10161267
15:00+17ююз101253100 0.3 10141926
18:00+13ююз7117265 0.7 1014936
21:00+10зсз3592100 2.7 1015254